When you browse on this site, cookies collect data to enhance your experience and personalize the content and advertising you see.
Visit our Privacy Policy to learn more. By continuing to use the site, you agree to this use of cookies and data.
  • en Suisse
  • Liste des pays
  • À 7 jours
  • Température de l'eau
  • Carte satellitaire
  • Carte météo
  • Widgets météo
  • user-avatar
    Se connecter

    Météo par heure à Xinzhan

    Ce jour, 24 Juillet, Mercredi

    Heure Température Précipitation Vent Pression Humidité
    00:00 +25°C° 1.9 mm 0 m/s 706 mmHg 95%
    01:00 +27°C° 0 mm 1 m/s 706 mmHg 92%
    02:00 +27°C° 0.7 mm 1 m/s 706 mmHg 93%
    03:00 +26°C° 0.7 mm 1 m/s 705 mmHg 94%
    04:00 +26°C° 0.7 mm 1 m/s 705 mmHg 94%
    05:00 +26°C° 1 mm 1 m/s 706 mmHg 94%
    06:00 +27°C° 1 mm 1 m/s 706 mmHg 94%
    07:00 +27°C° 1 mm 1 m/s 707 mmHg 93%
    08:00 +29°C° 1.8 mm 1 m/s 707 mmHg 90%
    09:00 +30°C° 1.8 mm 1 m/s 707 mmHg 86%
    10:00 +31°C° 1.8 mm 1 m/s 707 mmHg 83%
    11:00 +32°C° 2.4 mm 1 m/s 707 mmHg 80%
    12:00 +32°C° 2.4 mm 1 m/s 706 mmHg 78%
    13:00 +33°C° 2.4 mm 1 m/s 706 mmHg 76%
    14:00 +33°C° 1 mm 1 m/s 706 mmHg 75%
    15:00 +33°C° 1 mm 1 m/s 705 mmHg 75%
    16:00 +33°C° 1 mm 1 m/s 705 mmHg 75%
    17:00 +31°C° 1.9 mm 1 m/s 705 mmHg 80%
    18:00 +28°C° 1.9 mm 0 m/s 705 mmHg 85%
    19:00 +26°C° 1.9 mm 0 m/s 705 mmHg 89%
    20:00 +26°C° 1.5 mm 0 m/s 706 mmHg 90%
    21:00 +26°C° 1.5 mm 0 m/s 707 mmHg 90%
    22:00 +25°C° 1.5 mm 0 m/s 707 mmHg 91%
    23:00 +27°C° 1.4 mm 1 m/s 707 mmHg 91%

    Demain, 25 Juillet, Jeudi

    Heure Température Précipitation Vent Pression Humidité
    00:00 +27°C° 1.4 mm 1 m/s 707 mmHg 91%
    01:00 +27°C° 1.4 mm 1 m/s 707 mmHg 91%
    02:00 +27°C° 0.3 mm 1 m/s 707 mmHg 92%
    03:00 +24°C° 0.3 mm 0 m/s 707 mmHg 93%
    04:00 +24°C° 0.3 mm 0 m/s 707 mmHg 94%
    05:00 +24°C° 0.5 mm 0 m/s 707 mmHg 93%
    06:00 +25°C° 0.5 mm 0 m/s 708 mmHg 93%
    07:00 +25°C° 0.5 mm 0 m/s 708 mmHg 93%
    08:00 +29°C° 0 mm 1 m/s 708 mmHg 88%
    09:00 +30°C° 0 mm 1 m/s 708 mmHg 83%
    10:00 +31°C° 0 mm 1 m/s 709 mmHg 78%
    11:00 +31°C° 0.1 mm 1 m/s 708 mmHg 77%
    12:00 +32°C° 0.1 mm 2 m/s 707 mmHg 76%
    13:00 +32°C° 0.1 mm 2 m/s 707 mmHg 74%
    14:00 +32°C° 0.1 mm 2 m/s 706 mmHg 74%
    15:00 +33°C° 0.1 mm 1 m/s 706 mmHg 74%
    16:00 +33°C° 0.1 mm 1 m/s 705 mmHg 73%
    17:00 +31°C° 0.1 mm 1 m/s 705 mmHg 78%
    18:00 +30°C° 0.1 mm 1 m/s 705 mmHg 83%
    19:00 +29°C° 0.1 mm 1 m/s 705 mmHg 88%
    20:00 +29°C° 0.1 mm 1 m/s 706 mmHg 89%
    21:00 +28°C° 0.1 mm 1 m/s 706 mmHg 90%
    22:00 +28°C° 0.1 mm 1 m/s 707 mmHg 90%
    23:00 +28°C° 0.2 mm 1 m/s 706 mmHg 91%

    Après-demain, 26 Juillet, Vendredi

    Heure Température Précipitation Vent Pression Humidité
    00:00 +27°C° 0.2 mm 1 m/s 706 mmHg 91%
    01:00 +27°C° 0.2 mm 1 m/s 705 mmHg 91%
    02:00 +27°C° 0 mm 1 m/s 705 mmHg 92%
    03:00 +26°C° 0 mm 1 m/s 705 mmHg 93%
    04:00 +26°C° 0 mm 1 m/s 705 mmHg 95%
    05:00 +27°C° 0 mm 2 m/s 705 mmHg 93%
    06:00 +28°C° 0 mm 2 m/s 705 mmHg 91%
    07:00 +28°C° 0 mm 2 m/s 706 mmHg 90%
    08:00 +29°C° 0 mm 2 m/s 706 mmHg 85%
    09:00 +30°C° 0 mm 2 m/s 706 mmHg 81%
    10:00 +31°C° 0 mm 2 m/s 706 mmHg 76%
    11:00 +32°C° 0 mm 2 m/s 706 mmHg 75%
    12:00 +32°C° 0 mm 2 m/s 705 mmHg 74%
    13:00 +32°C° 0 mm 2 m/s 704 mmHg 73%
    14:00 +34°C° 0 mm 2 m/s 704 mmHg 73%
    15:00 +34°C° 0 mm 2 m/s 703 mmHg 74%
    16:00 +34°C° 0 mm 2 m/s 703 mmHg 74%
    17:00 +31°C° 0 mm 2 m/s 703 mmHg 79%
    18:00 +30°C° 0 mm 2 m/s 703 mmHg 85%
    19:00 +29°C° 0 mm 1 m/s 703 mmHg 90%
    20:00 +29°C° 0 mm 1 m/s 703 mmHg 91%
    21:00 +28°C° 0 mm 2 m/s 703 mmHg 92%
    22:00 +28°C° 0 mm 2 m/s 704 mmHg 93%
    23:00 +28°C° 0 mm 2 m/s 704 mmHg 94%

    27 Juillet, Samedi

    Heure Température Précipitation Vent Pression Humidité
    00:00 +27°C° 0 mm 2 m/s 703 mmHg 95%
    01:00 +27°C° 0 mm 2 m/s 703 mmHg 96%
    02:00 +27°C° 0 mm 2 m/s 703 mmHg 95%
    03:00 +27°C° 0 mm 2 m/s 703 mmHg 95%
    04:00 +27°C° 0 mm 2 m/s 703 mmHg 95%
    05:00 +27°C° 0 mm 2 m/s 703 mmHg 93%
    06:00 +28°C° 0 mm 2 m/s 704 mmHg 91%
    07:00 +29°C° 0 mm 2 m/s 704 mmHg 89%
    08:00 +29°C° 0 mm 2 m/s 704 mmHg 86%
    09:00 +30°C° 0 mm 3 m/s 704 mmHg 82%
    10:00 +31°C° 0 mm 3 m/s 705 mmHg 79%
    11:00 +31°C° 0.1 mm 3 m/s 704 mmHg 77%
    12:00 +33°C° 0.1 mm 3 m/s 704 mmHg 76%
    13:00 +34°C° 0.1 mm 3 m/s 703 mmHg 74%
    14:00 +34°C° 0.1 mm 3 m/s 703 mmHg 74%
    15:00 +34°C° 0.1 mm 3 m/s 703 mmHg 74%
    16:00 +34°C° 0.1 mm 3 m/s 702 mmHg 74%
    17:00 +33°C° 0.1 mm 3 m/s 702 mmHg 79%
    18:00 +31°C° 0.1 mm 2 m/s 703 mmHg 84%
    19:00 +30°C° 0.1 mm 2 m/s 703 mmHg 89%
    20:00 +29°C° 0 mm 2 m/s 703 mmHg 90%
    21:00 +29°C° 0 mm 2 m/s 704 mmHg 92%
    22:00 +28°C° 0 mm 2 m/s 705 mmHg 93%
    23:00 +28°C° 0 mm 2 m/s 704 mmHg 94%

    28 Juillet, Dimanche

    Heure Température Précipitation Vent Pression Humidité
    00:00 +28°C° 0 mm 2 m/s 704 mmHg 95%
    01:00 +27°C° 0 mm 2 m/s 704 mmHg 96%
    02:00 +27°C° 0 mm 2 m/s 704 mmHg 95%
    03:00 +27°C° 0 mm 2 m/s 704 mmHg 95%
    04:00 +27°C° 0 mm 2 m/s 704 mmHg 95%
    05:00 +28°C° 0 mm 2 m/s 704 mmHg 94%
    06:00 +28°C° 0 mm 2 m/s 705 mmHg 92%
    07:00 +29°C° 0 mm 2 m/s 705 mmHg 90%
    08:00 +30°C° 0 mm 2 m/s 705 mmHg 86%
    09:00 +30°C° 0 mm 3 m/s 705 mmHg 83%
    10:00 +31°C° 0 mm 3 m/s 706 mmHg 79%
    11:00 +33°C° 0.1 mm 3 m/s 705 mmHg 77%
    12:00 +33°C° 0.1 mm 3 m/s 705 mmHg 76%
    13:00 +34°C° 0.1 mm 3 m/s 704 mmHg 74%
    14:00 +34°C° 0 mm 4 m/s 704 mmHg 74%
    15:00 +34°C° 0 mm 4 m/s 703 mmHg 74%
    16:00 +34°C° 0 mm 4 m/s 703 mmHg 74%
    17:00 +33°C° 0.1 mm 4 m/s 703 mmHg 79%
    18:00 +31°C° 0.1 mm 3 m/s 703 mmHg 85%
    19:00 +29°C° 0.1 mm 3 m/s 703 mmHg 90%
    20:00 +29°C° 0 mm 3 m/s 704 mmHg 91%
    21:00 +28°C° 0 mm 2 m/s 704 mmHg 93%
    22:00 +28°C° 0 mm 2 m/s 705 mmHg 94%
    23:00 +28°C° 0 mm 2 m/s 705 mmHg 94%

    29 Juillet, Lundi

    Heure Température Précipitation Vent Pression Humidité
    00:00 +28°C° 0 mm 2 m/s 704 mmHg 94%
    01:00 +27°C° 0 mm 2 m/s 704 mmHg 94%
    02:00 +27°C° 0 mm 2 m/s 704 mmHg 94%
    03:00 +27°C° 0 mm 2 m/s 705 mmHg 94%
    04:00 +27°C° 0 mm 2 m/s 705 mmHg 94%
    05:00 +28°C° 0 mm 2 m/s 705 mmHg 92%
    06:00 +28°C° 0 mm 2 m/s 705 mmHg 90%
    07:00 +29°C° 0 mm 3 m/s 705 mmHg 88%
    08:00 +29°C° 0 mm 3 m/s 706 mmHg 85%
    09:00 +30°C° 0 mm 3 m/s 706 mmHg 82%
    10:00 +31°C° 0 mm 3 m/s 706 mmHg 78%
    11:00 +33°C° 0.1 mm 3 m/s 706 mmHg 76%
    12:00 +33°C° 0.1 mm 3 m/s 705 mmHg 73%
    13:00 +34°C° 0.1 mm 4 m/s 705 mmHg 71%
    14:00 +34°C° 0 mm 4 m/s 705 mmHg 71%
    15:00 +35°C° 0 mm 4 m/s 704 mmHg 71%
    16:00 +35°C° 0 mm 4 m/s 704 mmHg 70%
    17:00 +33°C° 0 mm 3 m/s 704 mmHg 77%
    18:00 +31°C° 0 mm 3 m/s 704 mmHg 83%
    19:00 +29°C° 0 mm 2 m/s 704 mmHg 89%
    20:00 +29°C° 0 mm 2 m/s 705 mmHg 90%
    21:00 +28°C° 0 mm 2 m/s 705 mmHg 91%
    22:00 +27°C° 0 mm 2 m/s 706 mmHg 92%
    23:00 +27°C° 0 mm 2 m/s 706 mmHg 92%
    Voir plus